| time (UTC) | temp F | wind direction | speed MPH | gust MPH | rain 1hr in | rain 24hr in | rain mn in | humidity % | barometer mb |
| 20260903121520 | 72 | 190 | 7.0 | 9.0 | 0.00 | 0.00 | 0.00 | 51 | 1013.7 |
| 20260903121016 | 72 | 196 | 6.0 | 8.0 | 0.00 | 0.00 | 0.00 | 51 | 1013.6 |
| 20260903120514 | 73 | 180 | 6.0 | 9.0 | 0.00 | 0.00 | 0.00 | 51 | 1013.6 |
| 20260903120009 | 73 | 192 | 7.0 | 9.0 | 0.00 | 0.00 | 0.00 | 50 | 1013.8 |
| 20260903115507 | 73 | 188 | 7.0 | 10.0 | 0.00 | 0.00 | 0.00 | 50 | 1013.6 |
| 20260903115002 | 73 | 193 | 9.0 | 10.0 | 0.00 | 0.00 | 0.00 | 49 | 1013.8 |
| 20260903114457 | 74 | 194 | 7.0 | 10.0 | 0.00 | 0.00 | 0.00 | 49 | 1013.4 |
| 20260903113953 | 74 | 205 | 9.0 | 11.0 | 0.00 | 0.00 | 0.00 | 48 | 1013.8 |
| 20260903113448 | 74 | 199 | 8.0 | 12.0 | 0.00 | 0.00 | 0.00 | 48 | 1013.7 |
| 20260903112943 | 74 | 195 | 12.0 | 12.0 | 0.00 | 0.00 | 0.00 | 48 | 1013.6 |
| 20260903112440 | 74 | 190 | 10.0 | 12.0 | 0.00 | 0.00 | 0.00 | 48 | 1013.4 |
| 20260903111939 | 74 | 191 | 6.0 | 11.0 | 0.00 | 0.00 | 0.00 | 48 | 1013.4 |
| 20260903111433 | 75 | 192 | 10.0 | 12.0 | 0.00 | 0.00 | 0.00 | 47 | 1013.4 |
| 20260903110929 | 75 | 199 | 10.0 | 12.0 | 0.00 | 0.00 | 0.00 | 47 | 1013.3 |
| 20260903110425 | 75 | 187 | 9.0 | 15.0 | 0.00 | 0.00 | 0.00 | 47 | 1013.3 |
| 20260903105919 | 75 | 185 | 10.0 | 13.0 | 0.00 | 0.00 | 0.00 | 47 | 1013.1 |
| 20260903105415 | 75 | 157 | 7.0 | 13.0 | 0.00 | 0.00 | 0.00 | 47 | 1013.3 |
| 20260903104914 | 75 | 186 | 7.0 | 13.0 | 0.00 | 0.00 | 0.00 | 47 | 1013.2 |
| 20260903104408 | 75 | 190 | 9.0 | 12.0 | 0.00 | 0.00 | 0.00 | 47 | 1013.0 |
| 20260903103906 | 75 | 190 | 11.0 | 15.0 | 0.00 | 0.00 | 0.00 | 46 | 1013.2 |
| 20260903103401 | 75 | 186 | 9.0 | 10.0 | 0.00 | 0.00 | 0.00 | 47 | 1013.4 |
| 20260903102856 | 74 | 183 | 7.0 | 11.0 | 0.00 | 0.00 | 0.00 | 47 | 1013.4 |
| 20260903102351 | 74 | 185 | 8.0 | 11.0 | 0.00 | 0.00 | 0.00 | 47 | 1013.4 |
| 20260903101851 | 73 | 171 | 6.0 | 9.0 | 0.00 | 0.00 | 0.00 | 48 | 1013.2 |
| 20260903101346 | 73 | 169 | 7.0 | 9.0 | 0.00 | 0.00 | 0.00 | 49 | 1013.4 |
| 20260903100841 | 73 | 191 | 6.0 | 9.0 | 0.00 | 0.00 | 0.00 | 49 | 1013.3 |
| 20260903100342 | 73 | 196 | 8.0 | 9.0 | 0.00 | 0.00 | 0.00 | 49 | 1013.4 |
| 20260903095839 | 73 | 185 | 9.0 | 9.0 | 0.00 | 0.00 | 0.00 | 49 | 1013.7 |
| 20260903095339 | 73 | 193 | 7.0 | 9.0 | 0.00 | 0.00 | 0.00 | 49 | 1013.4 |
| 20260903094834 | 73 | 193 | 7.0 | 9.0 | 0.00 | 0.00 | 0.00 | 49 | 1013.7 |
| 20260903094328 | 73 | 199 | 8.0 | 8.0 | 0.00 | 0.00 | 0.00 | 49 | 1013.8 |
| 20260903093824 | 73 | 195 | 6.0 | 9.0 | 0.00 | 0.00 | 0.00 | 49 | 1013.9 |
| 20260903093319 | 74 | 200 | 8.0 | 9.0 | 0.00 | 0.00 | 0.00 | 49 | 1013.7 |
| 20260903092814 | 74 | 202 | 7.0 | 9.0 | 0.00 | 0.00 | 0.00 | 48 | 1013.8 |
| 20260903092309 | 74 | 201 | 7.0 | 8.0 | 0.00 | 0.00 | 0.00 | 48 | 1013.6 |
| 20260903091808 | 74 | 201 | 7.0 | 8.0 | 0.00 | 0.00 | 0.00 | 48 | 1013.6 |
| 20260903091301 | 75 | 210 | 8.0 | 9.0 | 0.00 | 0.00 | 0.00 | 47 | 1013.8 |
| 20260903090758 | 75 | 210 | 6.0 | 11.0 | 0.00 | 0.00 | 0.00 | 47 | 1013.7 |
| 20260903090257 | 75 | 203 | 8.0 | 11.0 | 0.00 | 0.00 | 0.00 | 47 | 1013.8 |
| 20260903085755 | 76 | 203 | 10.0 | 14.0 | 0.00 | 0.00 | 0.00 | 46 | 1013.8 |
| 20260903085250 | 76 | 205 | 8.0 | 12.0 | 0.00 | 0.00 | 0.00 | 46 | 1013.6 |
| 20260903084748 | 76 | 202 | 11.0 | 13.0 | 0.00 | 0.00 | 0.00 | 46 | 1013.6 |
| 20260903084243 | 75 | 207 | 10.0 | 13.0 | 0.00 | 0.00 | 0.00 | 46 | 1013.7 |
| 20260903083739 | 75 | 205 | 8.0 | 11.0 | 0.00 | 0.00 | 0.00 | 47 | 1013.6 |
| 20260903083238 | 75 | 196 | 10.0 | 10.0 | 0.00 | 0.00 | 0.00 | 47 | 1013.7 |
| 20260903082737 | 75 | 198 | 10.0 | 13.0 | 0.00 | 0.00 | 0.00 | 47 | 1013.6 |
| 20260903082233 | 75 | 199 | 9.0 | 13.0 | 0.00 | 0.00 | 0.00 | 48 | 1013.7 |
| 20260903081728 | 75 | 202 | 8.0 | 11.0 | 0.00 | 0.00 | 0.00 | 48 | 1013.8 |
| 20260903081224 | 75 | 202 | 9.0 | 14.0 | 0.00 | 0.00 | 0.00 | 48 | 1013.7 |
| 20260903080720 | 76 | 206 | 10.0 | 12.0 | 0.00 | 0.00 | 0.00 | 48 | 1013.8 |
| 20260903080218 | 76 | 202 | 11.0 | 13.0 | 0.00 | 0.00 | 0.00 | 47 | 1013.7 |
| 20260903075716 | 76 | 200 | 9.0 | 11.0 | 0.00 | 0.00 | 0.00 | 48 | 1013.8 |
| 20260903075212 | 76 | 204 | 9.0 | 10.0 | 0.00 | 0.00 | 0.00 | 48 | 1013.7 |
| 20260903074710 | 76 | 199 | 6.0 | 11.0 | 0.00 | 0.00 | 0.00 | 48 | 1013.8 |
| 20260903074206 | 76 | 192 | 8.0 | 11.0 | 0.00 | 0.00 | 0.00 | 47 | 1014.0 |
| 20260903073701 | 76 | 202 | 8.0 | 9.0 | 0.00 | 0.00 | 0.00 | 47 | 1013.9 |
| 20260903073156 | 76 | 206 | 7.0 | 10.0 | 0.00 | 0.00 | 0.00 | 47 | 1013.4 |
| 20260903072652 | 77 | 200 | 7.0 | 11.0 | 0.00 | 0.00 | 0.00 | 47 | 1013.9 |
| 20260903072149 | 77 | 196 | 7.0 | 11.0 | 0.00 | 0.00 | 0.00 | 46 | 1014.0 |
| 20260903071644 | 77 | 206 | 11.0 | 12.0 | 0.00 | 0.00 | 0.00 | 46 | 1013.7 |
| 20260903071140 | 77 | 211 | 10.0 | 11.0 | 0.00 | 0.00 | 0.00 | 46 | 1013.6 |
| 20260903070640 | 77 | 202 | 8.0 | 11.0 | 0.00 | 0.00 | 0.00 | 46 | 1013.7 |
| 20260903070136 | 77 | 200 | 9.0 | 10.0 | 0.00 | 0.00 | 0.00 | 46 | 1014.1 |
| 20260903065635 | 78 | 206 | 9.0 | 11.0 | 0.00 | 0.00 | 0.00 | 45 | 1013.8 |
| 20260903065130 | 78 | 204 | 9.0 | 15.0 | 0.00 | 0.00 | 0.00 | 44 | 1013.6 |
| 20260903064629 | 78 | 203 | 10.0 | 15.0 | 0.00 | 0.00 | 0.00 | 44 | 1013.9 |
| 20260903064125 | 78 | 197 | 8.0 | 14.0 | 0.00 | 0.00 | 0.00 | 44 | 1013.9 |
| 20260903063620 | 78 | 205 | 9.0 | 16.0 | 0.00 | 0.00 | 0.00 | 44 | 1013.9 |
| 20260903063115 | 78 | 179 | 12.0 | 14.0 | 0.00 | 0.00 | 0.00 | 45 | 1013.8 |
| 20260903062611 | 78 | 199 | 10.0 | 18.0 | 0.00 | 0.00 | 0.00 | 45 | 1014.0 |
| 20260903062106 | 78 | 200 | 9.0 | 14.0 | 0.00 | 0.00 | 0.00 | 45 | 1014.2 |
| 20260903061606 | 78 | 188 | 11.0 | 16.0 | 0.00 | 0.00 | 0.00 | 45 | 1013.7 |
| 20260903061101 | 78 | 188 | 14.0 | 16.0 | 0.00 | 0.00 | 0.00 | 45 | 1013.7 |
| 20260903060601 | 78 | 192 | 11.0 | 16.0 | 0.00 | 0.00 | 0.00 | 44 | 1013.7 |
| 20260903060056 | 78 | 188 | 9.0 | 15.0 | 0.00 | 0.00 | 0.00 | 45 | 1014.0 |
| 20260903055553 | 78 | 197 | 9.0 | 17.0 | 0.00 | 0.00 | 0.00 | 45 | 1013.9 |
| 20260903055052 | 78 | 187 | 9.0 | 14.0 | 0.00 | 0.00 | 0.00 | 45 | 1014.2 |
| 20260903054547 | 79 | 198 | 13.0 | 19.0 | 0.00 | 0.00 | 0.00 | 45 | 1013.8 |
| 20260903054043 | 79 | 196 | 17.0 | 18.0 | 0.00 | 0.00 | 0.00 | 44 | 1013.8 |
| 20260903053538 | 79 | 185 | 11.0 | 18.0 | 0.00 | 0.00 | 0.00 | 44 | 1013.7 |
| 20260903053035 | 79 | 179 | 13.0 | 19.0 | 0.00 | 0.00 | 0.00 | 44 | 1014.1 |
| 20260903052530 | 79 | 180 | 13.0 | 19.0 | 0.00 | 0.00 | 0.00 | 45 | 1013.7 |
| 20260903052026 | 78 | 196 | 12.0 | 15.0 | 0.00 | 0.00 | 0.00 | 45 | 1013.7 |
| 20260903051525 | 78 | 191 | 7.0 | 17.0 | 0.00 | 0.00 | 0.00 | 45 | 1013.7 |
| 20260903051021 | 78 | 185 | 9.0 | 13.0 | 0.00 | 0.00 | 0.00 | 46 | 1013.7 |
| 20260903050520 | 78 | 191 | 14.0 | 15.0 | 0.00 | 0.00 | 0.00 | 45 | 1013.6 |
| 20260903050016 | 79 | 179 | 11.0 | 16.0 | 0.00 | 0.00 | 0.00 | 44 | 1013.8 |
| 20260903045510 | 79 | 171 | 14.0 | 17.0 | 0.00 | 0.00 | 0.00 | 45 | 1013.9 |
| 20260903045007 | 79 | 168 | 10.0 | 14.0 | 0.00 | 0.00 | 0.00 | 45 | 1013.9 |
| 20260903044502 | 79 | 172 | 11.0 | 15.0 | 0.00 | 0.00 | 0.00 | 45 | 1013.9 |
| 20260903043958 | 78 | 165 | 13.0 | 15.0 | 0.00 | 0.00 | 0.00 | 45 | 1014.0 |
| 20260903043453 | 78 | 166 | 15.0 | 16.0 | 0.00 | 0.00 | 0.00 | 45 | 1013.9 |
| 20260903042951 | 78 | 171 | 11.0 | 18.0 | 0.00 | 0.00 | 0.00 | 46 | 1014.0 |
| 20260903042447 | 78 | 174 | 9.0 | 14.0 | 0.00 | 0.00 | 0.00 | 46 | 1013.9 |
| 20260903041943 | 79 | 156 | 10.0 | 16.0 | 0.00 | 0.00 | 0.00 | 45 | 1013.9 |
| 20260903041439 | 79 | 169 | 12.0 | 17.0 | 0.00 | 0.00 | 0.00 | 45 | 1014.0 |
| 20260903040935 | 79 | 182 | 13.0 | 14.0 | 0.00 | 0.00 | 0.00 | 45 | 1013.7 |
| 20260903040433 | 79 | 165 | 14.0 | 18.0 | 0.00 | 0.00 | 0.00 | 45 | 1013.8 |
| 20260903035930 | 79 | 162 | 18.0 | 19.0 | 0.00 | 0.00 | 0.00 | 45 | 1013.8 |
| 20260903035425 | 80 | 157 | 9.0 | 17.0 | 0.00 | 0.00 | 0.00 | 45 | 1013.8 |
| 20260903034920 | 80 | 174 | 10.0 | 18.0 | 0.00 | 0.00 | 0.00 | 45 | 1013.8 |
| 20260903034415 | 80 | 164 | 13.0 | 17.0 | 0.00 | 0.00 | 0.00 | 46 | 1013.9 |
| 20260903033910 | 80 | 170 | 13.0 | 19.0 | 0.00 | 0.00 | 0.00 | 46 | 1014.0 |
| 20260903033405 | 80 | 159 | 14.0 | 17.0 | 0.00 | 0.00 | 0.00 | 46 | 1013.9 |
| 20260903032906 | 80 | 158 | 13.0 | 17.0 | 0.00 | 0.00 | 0.00 | 46 | 1013.9 |
| 20260903032401 | 80 | 159 | 13.0 | 16.0 | 0.00 | 0.00 | 0.00 | 46 | 1013.8 |
| 20260903031856 | 80 | 157 | 14.0 | 16.0 | 0.00 | 0.00 | 0.00 | 46 | 1013.8 |
| 20260903031355 | 81 | 157 | 12.0 | 17.0 | 0.00 | 0.00 | 0.00 | 46 | 1013.7 |
| 20260903030851 | 81 | 161 | 11.0 | 20.0 | 0.00 | 0.00 | 0.00 | 45 | 1013.4 |
| 20260903030347 | 82 | 162 | 11.0 | 19.0 | 0.00 | 0.00 | 0.00 | 45 | 1013.6 |
| 20260903025843 | 82 | 159 | 12.0 | 21.0 | 0.00 | 0.00 | 0.00 | 44 | 1013.4 |
| 20260903025338 | 82 | 167 | 13.0 | 17.0 | 0.00 | 0.00 | 0.00 | 44 | 1013.6 |
| 20260903024838 | 82 | 149 | 13.0 | 17.0 | 0.00 | 0.00 | 0.00 | 43 | 1013.2 |
| 20260903024332 | 83 | 157 | 15.0 | 17.0 | 0.00 | 0.00 | 0.00 | 43 | 1013.4 |
| 20260903023827 | 83 | 135 | 17.0 | 23.0 | 0.00 | 0.00 | 0.00 | 42 | 1013.2 |
| 20260903023323 | 84 | 152 | 16.0 | 19.0 | 0.00 | 0.00 | 0.00 | 41 | 1013.2 |
| 20260903022818 | 84 | 157 | 13.0 | 18.0 | 0.00 | 0.00 | 0.00 | 41 | 1013.1 |
| 20260903022317 | 84 | 160 | 13.0 | 20.0 | 0.00 | 0.00 | 0.00 | 40 | 1012.9 |
| 20260903021811 | 85 | 146 | 13.0 | 19.0 | 0.00 | 0.00 | 0.00 | 39 | 1013.1 |
| 20260903021307 | 85 | 152 | 10.0 | 18.0 | 0.00 | 0.00 | 0.00 | 39 | 1012.8 |
| 20260903020806 | 85 | 156 | 17.0 | 20.0 | 0.00 | 0.00 | 0.00 | 38 | 1012.9 |
| 20260903020301 | 86 | 155 | 12.0 | 19.0 | 0.00 | 0.00 | 0.00 | 38 | 1012.6 |
| 20260903015756 | 86 | 152 | 15.0 | 15.0 | 0.00 | 0.00 | 0.00 | 37 | 1012.6 |
| 20260903015252 | 86 | 156 | 9.0 | 16.0 | 0.00 | 0.00 | 0.00 | 37 | 1012.8 |
| 20260903014747 | 86 | 168 | 13.0 | 16.0 | 0.00 | 0.00 | 0.00 | 37 | 1012.6 |
| 20260903014247 | 86 | 163 | 13.0 | 16.0 | 0.00 | 0.00 | 0.00 | 37 | 1012.8 |
| 20260903013742 | 86 | 160 | 13.0 | 15.0 | 0.00 | 0.00 | 0.00 | 36 | 1012.3 |
| 20260903013241 | 87 | 172 | 9.0 | 14.0 | 0.00 | 0.00 | 0.00 | 36 | 1012.4 |
| 20260903012739 | 87 | 167 | 7.0 | 12.0 | 0.00 | 0.00 | 0.00 | 36 | 1012.4 |
| 20260903012234 | 87 | 171 | 8.0 | 11.0 | 0.00 | 0.00 | 0.00 | 36 | 1012.4 |
| 20260903011734 | 87 | 179 | 11.0 | 12.0 | 0.00 | 0.00 | 0.00 | 35 | 1012.6 |
| 20260903011227 | 88 | 169 | 12.0 | 16.0 | 0.00 | 0.00 | 0.00 | 35 | 1012.4 |
| 20260903010724 | 88 | 168 | 10.0 | 15.0 | 0.00 | 0.00 | 0.00 | 35 | 1012.4 |
| 20260903010223 | 88 | 175 | 11.0 | 16.0 | 0.00 | 0.00 | 0.00 | 34 | 1012.5 |
| 20260903005722 | 88 | 170 | 9.0 | 15.0 | 0.00 | 0.00 | 0.00 | 34 | 1012.4 |
| 20260903005217 | 89 | 171 | 12.0 | 16.0 | 0.00 | 0.00 | 0.00 | 34 | 1012.5 |
| 20260903004713 | 89 | 166 | 13.0 | 19.0 | 0.00 | 0.00 | 0.00 | 33 | 1012.4 |
| 20260903004208 | 89 | 164 | 16.0 | 19.0 | 0.00 | 0.00 | 0.00 | 33 | 1012.6 |
| 20260903003704 | 90 | 156 | 12.0 | 14.0 | 0.00 | 0.00 | 0.00 | 32 | 1012.5 |
| 20260903003159 | 90 | 160 | 10.0 | 15.0 | 0.00 | 0.00 | 0.00 | 31 | 1012.6 |
| 20260903002654 | 91 | 192 | 13.0 | 15.0 | 0.00 | 0.00 | 0.00 | 31 | 1012.4 |
| 20260903002148 | 91 | 180 | 8.0 | 12.0 | 0.00 | 0.00 | 0.00 | 31 | 1012.5 |
| 20260903001643 | 91 | 193 | 13.0 | 17.0 | 0.00 | 0.00 | 0.00 | 31 | 1012.5 |
| 20260903001137 | 91 | 171 | 13.0 | 16.0 | 0.00 | 0.00 | 0.00 | 31 | 1012.4 |
| 20260903000633 | 91 | 190 | 7.0 | 8.0 | 0.00 | 0.00 | 0.00 | 31 | 1012.5 |
| 20260903000132 | 90 | 192 | 7.0 | 10.0 | 0.00 | 0.00 | 0.00 | 32 | 1012.6 |
| 20260902235631 | 91 | 159 | 9.0 | 10.0 | 0.00 | 0.00 | 0.00 | 32 | 1012.6 |
| 20260902235126 | 91 | 180 | 9.0 | 11.0 | 0.00 | 0.00 | 0.00 | 31 | 1012.4 |
| 20260902234620 | 92 | 198 | 9.0 | 11.0 | 0.00 | 0.00 | 0.00 | 29 | 1012.6 |
| 20260902234119 | 90 | 197 | 11.0 | 16.0 | 0.00 | 0.00 | 0.00 | 31 | 1012.4 |
| 20260902233614 | 89 | 197 | 9.0 | 20.0 | 0.00 | 0.00 | 0.00 | 32 | 1012.5 |
| 20260902233114 | 91 | 198 | 13.0 | 15.0 | 0.00 | 0.00 | 0.00 | 31 | 1012.3 |
| 20260902232608 | 91 | 167 | 17.0 | 19.0 | 0.00 | 0.00 | 0.00 | 32 | 1012.0 |
| 20260902232102 | 91 | 162 | 15.0 | 20.0 | 0.00 | 0.00 | 0.00 | 32 | 1012.2 |
| 20260902231601 | 92 | 183 | 15.0 | 18.0 | 0.00 | 0.00 | 0.00 | 31 | 1012.3 |
| 20260902231056 | 91 | 176 | 16.0 | 22.0 | 0.00 | 0.00 | 0.00 | 32 | 1012.5 |
| 20260902230551 | 90 | 158 | 11.0 | 20.0 | 0.00 | 0.00 | 0.00 | 32 | 1012.4 |
| 20260902230050 | 90 | 173 | 15.0 | 21.0 | 0.00 | 0.00 | 0.00 | 32 | 1012.4 |
| 20260902225545 | 90 | 180 | 15.0 | 21.0 | 0.00 | 0.00 | 0.00 | 32 | 1012.1 |
| 20260902225044 | 91 | 159 | 11.0 | 21.0 | 0.00 | 0.00 | 0.00 | 31 | 1012.5 |
| 20260902224543 | 93 | 165 | 18.0 | 19.0 | 0.00 | 0.00 | 0.00 | 30 | 1012.3 |
| 20260902224039 | 92 | 150 | 15.0 | 20.0 | 0.00 | 0.00 | 0.00 | 31 | 1012.8 |
| 20260902223536 | 92 | 134 | 16.0 | 22.0 | 0.00 | 0.00 | 0.00 | 31 | 1012.4 |
| 20260902223034 | 92 | 130 | 14.0 | 17.0 | 0.00 | 0.00 | 0.00 | 31 | 1012.5 |
| 20260902222533 | 92 | 181 | 11.0 | 21.0 | 0.00 | 0.00 | 0.00 | 31 | 1012.5 |
| 20260902222032 | 92 | 161 | 20.0 | 26.0 | 0.00 | 0.00 | 0.00 | 32 | 1012.6 |
| 20260902221527 | 93 | 158 | 19.0 | 21.0 | 0.00 | 0.00 | 0.00 | 30 | 1012.6 |
| 20260902221022 | 93 | 191 | 9.0 | 21.0 | 0.00 | 0.00 | 0.00 | 31 | 1012.9 |
| 20260902220517 | 93 | 207 | 14.0 | 16.0 | 0.00 | 0.00 | 0.00 | 28 | 1012.5 |
| 20260902220012 | 92 | 225 | 14.0 | 15.0 | 0.00 | 0.00 | 0.00 | 28 | 1012.6 |
| 20260902215508 | 93 | 224 | 21.0 | 23.0 | 0.00 | 0.00 | 0.00 | 28 | 1012.6 |
| 20260902215004 | 94 | 220 | 16.0 | 22.0 | 0.00 | 0.00 | 0.00 | 27 | 1012.5 |
| 20260902214503 | 95 | 168 | 17.0 | 19.0 | 0.00 | 0.00 | 0.00 | 27 | 1012.5 |
| 20260902214002 | 94 | 164 | 9.0 | 21.0 | 0.00 | 0.00 | 0.00 | 27 | 1012.8 |
| 20260902213458 | 95 | 223 | 12.0 | 17.0 | 0.00 | 0.00 | 0.00 | 26 | 1012.8 |
| 20260902212956 | 94 | 206 | 18.0 | 21.0 | 0.00 | 0.00 | 0.00 | 26 | 1013.0 |
| 20260902212453 | 95 | 201 | 20.0 | 23.0 | 0.00 | 0.00 | 0.00 | 27 | 1013.0 |
| 20260902211949 | 94 | 184 | 6.0 | 12.0 | 0.00 | 0.00 | 0.00 | 28 | 1013.0 |
| 20260902211444 | 94 | 214 | 9.0 | 14.0 | 0.00 | 0.00 | 0.00 | 28 | 1013.2 |
| 20260902210939 | 94 | 211 | 14.0 | 17.0 | 0.00 | 0.00 | 0.00 | 28 | 1013.1 |
| 20260902210434 | 96 | 170 | 11.0 | 15.0 | 0.00 | 0.00 | 0.00 | 27 | 1012.9 |
| 20260902205932 | 95 | 187 | 7.0 | 11.0 | 0.00 | 0.00 | 0.00 | 28 | 1013.1 |
| 20260902205428 | 93 | 174 | 9.0 | 14.0 | 0.00 | 0.00 | 0.00 | 28 | 1013.2 |
| 20260902204924 | 93 | 180 | 11.0 | 19.0 | 0.00 | 0.00 | 0.00 | 29 | 1013.3 |
| 20260902204423 | 95 | 225 | 8.0 | 18.0 | 0.00 | 0.00 | 0.00 | 28 | 1013.7 |
| 20260902203919 | 92 | 256 | 6.0 | 14.0 | 0.00 | 0.00 | 0.00 | 29 | 1013.6 |
| 20260902203414 | 95 | 184 | 2.0 | 3.0 | 0.00 | 0.00 | 0.00 | 29 | 1013.8 |
| 20260902202913 | 91 | 249 | 4.0 | 11.0 | 0.00 | 0.00 | 0.00 | 31 | 1013.9 |
| 20260902202409 | 91 | 197 | 7.0 | 10.0 | 0.00 | 0.00 | 0.00 | 31 | 1013.9 |
| 20260902201906 | 92 | 178 | 7.0 | 9.0 | 0.00 | 0.00 | 0.00 | 31 | 1013.9 |
| 20260902201405 | 93 | 170 | 5.0 | 12.0 | 0.00 | 0.00 | 0.00 | 30 | 1014.0 |
| 20260902200900 | 92 | 200 | 12.0 | 17.0 | 0.00 | 0.00 | 0.00 | 31 | 1014.2 |
| 20260902200355 | 91 | 217 | 9.0 | 14.0 | 0.00 | 0.00 | 0.00 | 31 | 1014.0 |
| 20260902195850 | 91 | 231 | 13.0 | 15.0 | 0.00 | 0.00 | 0.00 | 31 | 1014.3 |
| 20260902195349 | 90 | 232 | 11.0 | 19.0 | 0.00 | 0.00 | 0.00 | 33 | 1014.3 |
| 20260902194845 | 91 | 292 | 5.0 | 16.0 | 0.00 | 0.00 | 0.00 | 32 | 1014.6 |
| 20260902194339 | 93 | 213 | 14.0 | 20.0 | 0.00 | 0.00 | 0.00 | 31 | 1014.3 |
| 20260902193834 | 93 | 206 | 14.0 | 21.0 | 0.00 | 0.00 | 0.00 | 31 | 1014.5 |
| 20260902193330 | 93 | 203 | 19.0 | 20.0 | 0.00 | 0.00 | 0.00 | 30 | 1014.6 |
| 20260902192829 | 92 | 239 | 14.0 | 20.0 | 0.00 | 0.00 | 0.00 | 31 | 1014.8 |
| 20260902192328 | 90 | 184 | 5.0 | 6.0 | 0.00 | 0.00 | 0.00 | 33 | 1014.7 |
| 20260902191822 | 90 | 247 | 9.0 | 15.0 | 0.00 | 0.00 | 0.00 | 33 | 1015.0 |
| 20260902191317 | 91 | 232 | 13.0 | 19.0 | 0.00 | 0.00 | 0.00 | 32 | 1015.0 |
| 20260902190813 | 93 | 195 | 9.0 | 9.0 | 0.00 | 0.00 | 0.00 | 31 | 1014.9 |
| 20260902190312 | 91 | 231 | 5.0 | 14.0 | 0.00 | 0.00 | 0.00 | 33 | 1014.9 |
| 20260902185808 | 90 | 233 | 5.0 | 6.0 | 0.00 | 0.00 | 0.00 | 33 | 1015.3 |
| 20260902185306 | 91 | 233 | 12.0 | 16.0 | 0.00 | 0.00 | 0.00 | 32 | 1015.3 |
| 20260902184759 | 91 | 260 | 12.0 | 16.0 | 0.00 | 0.00 | 0.00 | 32 | 1015.4 |
| 20260902184254 | 90 | 229 | 9.0 | 11.0 | 0.00 | 0.00 | 0.00 | 34 | 1015.5 |
| 20260902183750 | 92 | 221 | 13.0 | 15.0 | 0.00 | 0.00 | 0.00 | 33 | 1015.7 |
| 20260902183246 | 89 | 197 | 10.0 | 16.0 | 0.00 | 0.00 | 0.00 | 34 | 1015.9 |
| 20260902182742 | 89 | 249 | 11.0 | 16.0 | 0.00 | 0.00 | 0.00 | 35 | 1015.8 |
| 20260902182238 | 89 | 258 | 12.0 | 14.0 | 0.00 | 0.00 | 0.00 | 35 | 1015.9 |
| 20260902181735 | 90 | 236 | 15.0 | 22.0 | 0.00 | 0.00 | 0.00 | 35 | 1015.9 |
| 20260902181234 | 89 | 303 | 2.0 | 9.0 | 0.00 | 0.00 | 0.00 | 35 | 1016.2 |
| 20260902180729 | 89 | 211 | 12.0 | 19.0 | 0.00 | 0.00 | 0.00 | 35 | 1016.2 |
| 20260902180224 | 90 | 273 | 8.0 | 9.0 | 0.00 | 0.00 | 0.00 | 34 | 1016.4 |
| 20260902175719 | 88 | 255 | 7.0 | 12.0 | 0.00 | 0.00 | 0.00 | 33 | 1016.2 |
| 20260902175215 | 89 | 248 | 14.0 | 19.0 | 0.00 | 0.00 | 0.00 | 34 | 1016.5 |
| 20260902174711 | 88 | 229 | 10.0 | 13.0 | 0.00 | 0.00 | 0.00 | 37 | 1016.4 |
| 20260902174207 | 88 | 216 | 13.0 | 18.0 | 0.00 | 0.00 | 0.00 | 36 | 1016.4 |
| 20260902173702 | 88 | 228 | 12.0 | 16.0 | 0.00 | 0.00 | 0.00 | 37 | 1016.5 |
| 20260902173157 | 87 | 232 | 8.0 | 17.0 | 0.00 | 0.00 | 0.00 | 38 | 1016.6 |
| 20260902172657 | 89 | 230 | 15.0 | 17.0 | 0.00 | 0.00 | 0.00 | 36 | 1016.7 |
| 20260902172156 | 88 | 216 | 14.0 | 18.0 | 0.00 | 0.00 | 0.00 | 38 | 1016.8 |
| 20260902171651 | 87 | 255 | 15.0 | 18.0 | 0.00 | 0.00 | 0.00 | 39 | 1016.7 |
| 20260902171147 | 87 | 220 | 14.0 | 21.0 | 0.00 | 0.00 | 0.00 | 39 | 1016.6 |
| 20260902170643 | 87 | 209 | 14.0 | 17.0 | 0.00 | 0.00 | 0.00 | 40 | 1016.7 |
| 20260902170138 | 85 | 225 | 17.0 | 17.0 | 0.00 | 0.00 | 0.00 | 42 | 1016.7 |
| 20260902165633 | 86 | 207 | 8.0 | 17.0 | 0.00 | 0.00 | 0.00 | 42 | 1017.2 |
| 20260902165133 | 85 | 201 | 9.0 | 17.0 | 0.00 | 0.00 | 0.00 | 43 | 1017.2 |
| 20260902164628 | 85 | 233 | 11.0 | 18.0 | 0.00 | 0.00 | 0.00 | 42 | 1017.1 |
| 20260902164127 | 85 | 232 | 13.0 | 14.0 | 0.00 | 0.00 | 0.00 | 44 | 1017.1 |
| 20260902163622 | 85 | 240 | 21.0 | 21.0 | 0.00 | 0.00 | 0.00 | 44 | 1017.3 |
| 20260902163121 | 83 | 235 | 13.0 | 23.0 | 0.00 | 0.00 | 0.00 | 46 | 1017.2 |
| 20260902162620 | 83 | 218 | 9.0 | 18.0 | 0.00 | 0.00 | 0.00 | 45 | 1017.2 |
| 20260902162115 | 83 | 215 | 11.0 | 18.0 | 0.00 | 0.00 | 0.00 | 46 | 1017.1 |
| 20260902161610 | 84 | 217 | 13.0 | 19.0 | 0.00 | 0.00 | 0.00 | 45 | 1017.1 |
| 20260902161106 | 83 | 228 | 17.0 | 21.0 | 0.00 | 0.00 | 0.00 | 46 | 1017.1 |
| 20260902160603 | 82 | 224 | 14.0 | 20.0 | 0.00 | 0.00 | 0.00 | 46 | 1017.1 |
| 20260902160057 | 83 | 228 | 13.0 | 17.0 | 0.00 | 0.00 | 0.00 | 47 | 1017.0 |
| 20260902155555 | 82 | 226 | 15.0 | 18.0 | 0.00 | 0.00 | 0.00 | 47 | 1017.1 |
| 20260902155054 | 82 | 218 | 12.0 | 15.0 | 0.00 | 0.00 | 0.00 | 49 | 1017.0 |
| 20260902154549 | 81 | 215 | 11.0 | 18.0 | 0.00 | 0.00 | 0.00 | 50 | 1017.2 |
| 20260902154044 | 81 | 223 | 17.0 | 17.0 | 0.00 | 0.00 | 0.00 | 50 | 1017.0 |
| 20260902153543 | 80 | 227 | 11.0 | 19.0 | 0.00 | 0.00 | 0.00 | 50 | 1017.1 |
| 20260902153039 | 80 | 228 | 13.0 | 17.0 | 0.00 | 0.00 | 0.00 | 51 | 1017.1 |
| 20260902152535 | 80 | 231 | 12.0 | 15.0 | 0.00 | 0.00 | 0.00 | 51 | 1017.1 |
| 20260902152030 | 79 | 206 | 13.0 | 16.0 | 0.00 | 0.00 | 0.00 | 52 | 1017.0 |
| 20260902151526 | 80 | 237 | 14.0 | 17.0 | 0.00 | 0.00 | 0.00 | 51 | 1017.1 |
| 20260902151025 | 80 | 232 | 18.0 | 21.0 | 0.00 | 0.00 | 0.00 | 51 | 1016.7 |
| 20260902150521 | 79 | 231 | 16.0 | 20.0 | 0.00 | 0.00 | 0.00 | 53 | 1017.1 |
| 20260902150016 | 79 | 214 | 14.0 | 16.0 | 0.00 | 0.00 | 0.00 | 52 | 1016.7 |
| 20260902145511 | 78 | 222 | 14.0 | 17.0 | 0.00 | 0.00 | 0.00 | 54 | 1017.0 |
| 20260902145010 | 78 | 220 | 16.0 | 19.0 | 0.00 | 0.00 | 0.00 | 54 | 1016.8 |
| 20260902144507 | 78 | 237 | 15.0 | 17.0 | 0.00 | 0.00 | 0.00 | 54 | 1017.2 |
| 20260902144002 | 77 | 229 | 11.0 | 15.0 | 0.00 | 0.00 | 0.00 | 56 | 1016.7 |
| 20260902143457 | 77 | 236 | 17.0 | 17.0 | 0.00 | 0.00 | 0.00 | 56 | 1017.0 |
| 20260902142953 | 77 | 219 | 12.0 | 13.0 | 0.00 | 0.00 | 0.00 | 56 | 1016.8 |
| 20260902142448 | 76 | 252 | 11.0 | 11.0 | 0.00 | 0.00 | 0.00 | 57 | 1017.1 |
| 20260902141949 | 76 | 246 | 10.0 | 12.0 | 0.00 | 0.00 | 0.00 | 59 | 1017.2 |
| 20260902141444 | 75 | 228 | 7.0 | 10.0 | 0.00 | 0.00 | 0.00 | 59 | 1016.8 |
| 20260902140944 | 75 | 225 | 7.0 | 9.0 | 0.00 | 0.00 | 0.00 | 60 | 1016.7 |
| 20260902140439 | 74 | 227 | 8.0 | 10.0 | 0.00 | 0.00 | 0.00 | 60 | 1016.8 |
| 20260902135938 | 74 | 184 | 3.0 | 6.0 | 0.00 | 0.00 | 0.00 | 61 | 1017.0 |
| 20260902135435 | 73 | 228 | 5.0 | 7.0 | 0.00 | 0.00 | 0.00 | 63 | 1017.0 |
| 20260902134933 | 72 | 252 | 5.0 | 5.0 | 0.00 | 0.00 | 0.00 | 64 | 1016.7 |
| 20260902134430 | 72 | 269 | 5.0 | 7.0 | 0.00 | 0.00 | 0.00 | 65 | 1017.0 |
| 20260902133924 | 72 | 264 | 5.0 | 5.0 | 0.00 | 0.00 | 0.00 | 66 | 1017.0 |
| 20260902133419 | 71 | 281 | 4.0 | 6.0 | 0.00 | 0.00 | 0.00 | 67 | 1017.0 |
| 20260902132914 | 71 | 271 | 4.0 | 5.0 | 0.00 | 0.00 | 0.00 | 68 | 1016.8 |
| 20260902132409 | 71 | 277 | 3.0 | 5.0 | 0.00 | 0.00 | 0.00 | 68 | 1017.0 |
| 20260902131904 | 70 | 244 | 4.0 | 5.0 | 0.00 | 0.00 | 0.00 | 70 | 1017.1 |
| 20260902131401 | 69 | 272 | 3.0 | 4.0 | 0.00 | 0.00 | 0.00 | 71 | 1016.8 |
| 20260902130900 | 69 | 285 | 2.0 | 3.0 | 0.00 | 0.00 | 0.00 | 71 | 1016.8 |
| 20260902130356 | 69 | 282 | 3.0 | 3.0 | 0.00 | 0.00 | 0.00 | 70 | 1016.6 |
| 20260902125851 | 69 | 266 | 4.0 | 5.0 | 0.00 | 0.00 | 0.00 | 70 | 1016.5 |
| 20260902125347 | 70 | 275 | 4.0 | 5.0 | 0.00 | 0.00 | 0.00 | 69 | 1016.3 |
| 20260902124843 | 69 | 264 | 4.0 | 4.0 | 0.00 | 0.00 | 0.00 | 70 | 1016.5 |
| 20260902124339 | 69 | 250 | 3.0 | 4.0 | 0.00 | 0.00 | 0.00 | 70 | 1016.3 |
| 20260902123833 | 69 | 245 | 3.0 | 4.0 | 0.00 | 0.00 | 0.00 | 70 | 1016.3 |
| 20260902123330 | 69 | 245 | 4.0 | 4.0 | 0.00 | 0.00 | 0.00 | 70 | 1016.2 |
| 20260902122828 | 69 | 224 | 4.0 | 5.0 | 0.00 | 0.00 | 0.00 | 70 | 1016.0 |
| 20260902122325 | 69 | 218 | 5.0 | 5.0 | 0.00 | 0.00 | 0.00 | 70 | 1016.2 |